Wind_Speed
24 26 31 41 52 63 77 94 112 142 156 159 166 170 151 141 138 134 128 126 123 121 116 110 107 103 103 102 101 103 101 101 97 95 94 93 88 84 87 85 74 75 74 72
20 22 26 33 46 59 68 79 104 129 153 162 159 160 157 147 143 136 130 123 123 119 120 116 111 108 105 105 105 106 105 104 102 100 97 95 90 89 90 91 92 86 88 84
18 20 23 27 39 51 62 75 93 115 139 149 155 155 157 154 148 141 132 124 124 121 117 120 115 111 111 112 111 111 111 108 106 103 103 102 99 95 95 97 94 92 90 88
18 18 20 24 33 45 58 69 84 102 119 137 149 153 150 150 151 144 132 128 121 123 123 117 123 120 116 116 117 116 117 117 112 109 108 105 105 102 101 97 93 94 94 98
20 18 18 22 29 38 51 65 76 95 109 124 134 144 150 147 146 142 136 126 122 121 127 123 118 124 124 119 119 121 121 121 117 114 112 111 112 110 107 105 103 99 98 99
22 18 18 20 25 33 44 57 72 87 101 110 116 132 148 142 145 143 139 130 130 127 128 130 126 122 123 124 124 123 121 120 116 115 117 117 111 108 110 109 109 109 106 107
24 19 17 19 21 29 38 50 62 76 91 98 104 114 129 134 135 135 136 137 135 133 131 129 134 132 127 122 122 122 122 120 121 121 121 120 111 114 113 113 114 113 111 112
26 20 17 17 21 23 32 41 52 66 82 89 100 111 114 124 130 139 137 139 139 137 133 132 132 136 138 133 131 130 125 122 122 123 123 122 118 116 116 117 118 119 119 120
31 22 19 16 17 21 25 33 44 56 70 85 91 101 111 121 128 129 139 141 142 137 136 137 136 133 133 136 136 132 130 128 126 123 123 121 116 118 121 123 123 122 124 125
37 25 20 18 16 18 23 28 35 49 62 74 85 97 105 114 120 123 131 136 141 142 137 137 137 137 136 136 137 135 134 135 133 131 129 125 120 122 123 126 123 125 128 129
42 30 22 19 19 17 18 24 32 42 54 65 74 84 94 100 107 118 124 129 132 137 141 142 140 138 136 134 133 135 137 135 135 136 134 133 127 128 131 130 129 131 132 133
49 37 25 19 18 20 18 19 28 36 46 56 66 77 85 92 98 109 117 122 126 126 132 136 140 140 138 136 132 130 129 129 130 130 131 129 128 129 132 131 134 134 135 136
53 43 33 22 17 17 19 20 23 33 40 46 58 68 77 86 95 101 108 116 120 125 130 132 134 137 136 135 135 136 135 135 134 133 133 133 134 135 137 139 140 141 143 146
56 47 38 28 19 17 17 20 22 26 35 43 54 64 70 77 84 93 104 109 113 117 118 121 124 129 132 132 134 135 135 135 134 136 136 138 140 140 140 140 141 142 144 145
60 50 42 33 24 16 18 20 22 26 33 40 49 60 68 75 78 83 91 99 107 105 109 115 120 123 125 128 130 132 136 137 140 140 140 138 139 139 139 140 142 143 145 148
64 54 45 38 30 21 15 19 22 25 29 37 46 54 64 71 76 77 80 89 99 105 109 112 116 124 129 133 133 135 136 136 136 138 140 141 141 140 140 141 140 142 144 144
69 60 48 40 34 27 20 15 20 24 27 31 38 48 63 67 71 73 77 79 86 91 99 106 111 117 122 125 128 129 131 133 135 136 137 139 142 143 144 145 143 139 137 135
74 63 56 44 36 31 25 19 17 21 26 28 33 38 46 60 70 75 81 84 86 89 93 97 101 107 110 112 115 120 123 126 128 129 130 131 131 132 134 132 130 131 133 134
76 68 58 52 41 34 29 24 19 20 24 27 31 36 41 48 58 69 75 79 81 82 82 83 86 89 92 98 105 110 115 119 122 124 127 127 128 129 127 124 123 123 124 125
76 72 62 54 45 38 32 28 24 21 22 26 31 34 40 44 48 56 67 75 78 80 81 82 82 85 86 88 92 96 103 108 111 112 111 113 114 115 113 112 111 107 107 105
81 75 64 57 48 41 36 30 27 27 24 25 28 33 38 43 47 51 54 59 67 73 76 80 80 80 82 84 87 91 92 94 96 97 99 101 99 98 96 92 92 95 96 100
94 77 67 60 52 43 39 35 29 25 26 27 29 32 36 41 44 47 50 53 56 60 66 72 74 78 82 83 85 88 90 93 95 95 95 91 87 85 86 87 89 91 92 93
98 77 72 61 55 46 41 38 34 29 27 26 28 32 35 38 42 46 48 50 53 57 61 63 68 76 76 74 74 76 79 82 84 85 84 82 81 82 86 89 90 93 90 86
107 84 79 63 56 51 44 39 36 33 30 29 28 30 32 37 40 42 46 49 52 53 56 61 65 65 64 66 71 75 76 78 78 78 78 76 77 85 86 87 86 86 84 80
111 87 82 66 58 52 46 41 37 35 32 30 30 30 31 32 35 39 43 46 50 53 54 55 57 59 62 64 66 68 69 70 70 70 70 71 73 77 79 80 79 78 76 75
114 89 83 69 62 54 46 42 38 36 33 31 31 31 32 32 34 36 38 42 45 46 49 53 56 58 60 61 63 64 64 64 65 66 67 68 70 72 73 74 73 73 73 73
116 88 83 74 65 57 49 43 39 37 33 31 30 31 32 33 34 37 37 39 39 42 45 47 50 52 55 56 58 59 60 61 62 63 64 66 67 69 69 69 67 66 64 64
Wind_Direction
272 257 241 228 220 217 210 208 205 210 213 213 218 220 219 219 220 220 223 224 224 227 229 229 230 232 233 234 236 241 242 239 239 242 245 249 248 251 253 252 252 252 254 260
284 263 249 232 224 217 214 210 205 209 214 213 217 220 219 219 219 221 222 222 222 225 229 230 230 231 233 235 238 241 242 242 243 245 247 254 250 249 250 254 253 261 260 264
299 273 254 236 225 218 213 210 208 211 214 214 217 219 219 219 220 221 221 222 222 222 226 229 230 231 233 236 238 241 242 243 245 247 247 250 250 251 254 259 264 263 263 258
311 285 265 244 226 219 214 211 209 210 214 216 216 217 219 218 219 220 221 222 224 224 223 226 228 231 233 235 238 240 242 243 244 246 248 250 250 250 254 256 256 259 258 257
323 299 275 252 232 223 215 213 210 209 213 217 217 218 220 218 218 218 220 220 221 222 223 224 228 231 232 233 236 238 241 242 243 246 247 249 250 251 254 256 257 259 259 258
330 313 288 261 238 226 223 216 214 211 214 219 217 217 219 218 219 219 219 218 219 221 223 223 226 230 233 237 238 240 242 244 245 247 248 249 251 253 255 257 257 258 261 260
338 324 300 275 249 229 226 222 218 216 216 218 217 219 221 218 219 218 220 218 219 221 223 224 226 228 231 233 236 240 241 244 246 247 248 250 252 253 254 256 257 258 259 259
344 330 312 289 267 239 226 226 222 217 216 219 217 218 218 218 218 218 219 219 218 221 223 226 227 229 230 232 233 236 238 241 244 247 248 250 252 254 254 256 257 259 260 261
348 339 322 305 280 261 235 223 224 221 217 219 219 219 219 220 219 216 219 221 220 222 224 225 228 231 233 235 237 239 240 242 244 244 247 250 250 252 254 256 257 259 260 262
354 344 332 313 291 266 250 229 220 222 221 219 220 219 221 221 223 218 219 222 224 224 225 227 229 230 232 235 237 239 243 245 247 247 248 248 248 250 252 254 256 257 259 261
355 349 339 322 302 282 253 235 219 216 220 223 222 223 224 226 224 222 221 223 226 228 228 229 230 232 234 236 239 241 242 245 247 248 250 252 254 254 254 255 257 259 258 259
355 352 344 333 307 292 275 249 223 213 216 221 222 222 223 223 222 223 224 225 225 228 232 233 233 233 235 237 239 242 245 247 249 250 252 252 253 255 257 257 258 260 261 262
357 353 348 336 320 292 278 263 233 218 211 218 221 223 223 224 222 222 223 226 227 229 231 233 234 236 238 239 241 244 245 246 249 250 251 252 253 254 255 257 258 260 262 263
357 355 349 342 329 310 282 264 251 232 221 218 216 219 224 225 225 224 224 224 226 230 232 235 237 239 239 240 243 245 245 247 250 252 252 253 255 257 259 260 261 263 265 266
357 356 352 345 336 319 298 277 256 242 233 224 218 216 218 222 225 225 225 226 227 230 232 234 235 237 239 240 241 244 246 248 250 252 253 254 256 258 259 261 262 264 265 267
357 355 353 347 340 328 302 284 269 257 242 233 222 216 214 216 220 226 228 226 228 230 231 233 234 236 238 239 241 244 246 248 250 251 252 254 255 257 258 260 262 263 265 267
358 354 353 349 341 333 319 291 274 260 252 242 233 223 216 216 216 220 225 229 229 231 233 235 238 240 241 243 244 245 247 249 251 253 255 256 257 258 259 261 264 265 267 268
357 356 352 349 344 336 324 308 282 267 255 246 241 233 228 220 219 221 221 224 229 233 236 238 240 241 243 245 246 247 248 250 252 254 256 259 261 262 263 264 266 267 268 269
358 354 353 348 344 338 328 316 298 276 265 252 244 240 235 229 227 225 224 224 228 232 237 241 243 243 243 244 247 248 249 251 253 255 257 259 261 262 264 266 267 267 268 269
356 357 353 350 343 338 332 320 306 287 266 259 249 242 241 239 236 233 231 229 231 231 233 236 241 244 247 247 247 248 249 249 251 254 256 258 260 261 261 262 264 267 266 266
355 355 352 349 344 337 331 326 314 301 287 265 256 251 246 241 240 239 237 235 234 234 237 237 238 242 246 248 250 251 253 254 256 258 259 259 261 264 266 269 270 272 274 271
357 353 351 350 345 339 331 324 318 307 290 279 264 256 253 249 246 244 244 243 243 243 243 244 245 247 249 251 253 254 255 256 256 258 260 263 266 270 274 277 279 281 278 278
356 350 350 348 345 339 332 324 318 312 298 283 274 265 257 253 251 249 248 247 246 247 247 248 249 250 251 253 257 260 262 264 264 264 265 266 269 273 278 280 281 282 278 278
353 350 349 346 344 339 332 325 317 311 304 292 279 270 265 260 257 253 250 248 247 248 249 250 251 255 259 262 263 263 263 263 263 263 264 266 270 273 277 277 276 276 276 277
352 349 347 344 342 338 331 325 318 310 304 297 287 276 270 265 261 258 256 254 253 251 252 254 255 255 257 258 260 261 262 263 265 267 270 272 271 272 273 274 274 275 276 277
351 347 346 343 340 337 331 324 317 309 302 297 290 283 275 269 264 260 257 255 254 255 255 255 255 255 256 257 259 260 262 264 265 267 268 269 270 270 270 271 273 275 277 280
349 346 345 342 339 337 332 325 317 310 302 295 289 282 276 272 270 267 264 262 260 257 255 256 256 256 257 259 260 261 262 263 265 266 267 268 269 270 272 274 276 277 278 278
Height
10154 10156 10159 10164 10170 10178 10192 10211 10236 10234 10256 10278 10278 10297 10365 10395 10409 10427 10436 10460 10471 10489 10502 10518 10531 10544 10548 10553 10556 10559 10566 10572 10584 10594 10597 10600 10611 10619 10616 10619 10631 10632 10641 10650
10149 10149 10152 10157 10162 10170 10183 10202 10213 10224 10230 10254 10263 10296 10330 10365 10381 10403 10420 10440 10455 10469 10485 10497 10510 10519 10529 10535 10538 10540 10548 10555 10567 10576 10585 10592 10595 10596 10596 10599 10605 10617 10619 10633
10144 10142 10144 10148 10153 10162 10174 10187 10197 10211 10218 10243 10257 10280 10312 10346 10365 10383 10401 10419 10437 10454 10461 10476 10489 10499 10508 10513 10516 10519 10522 10535 10547 10562 10564 10567 10570 10576 10576 10580 10595 10600 10606 10609
10140 10138 10138 10140 10145 10152 10162 10171 10182 10193 10202 10218 10242 10260 10291 10322 10337 10362 10382 10400 10420 10435 10444 10455 10466 10476 10483 10490 10493 10498 10504 10513 10526 10535 10542 10549 10553 10557 10558 10567 10573 10574 10584 10586
10137 10134 10134 10136 10139 10145 10153 10161 10169 10181 10190 10202 10226 10246 10270 10304 10320 10341 10365 10388 10400 10413 10422 10436 10448 10453 10455 10460 10465 10469 10478 10489 10504 10512 10519 10525 10531 10536 10544 10549 10552 10555 10559 10563
10136 10132 10131 10131 10135 10139 10144 10153 10160 10171 10182 10192 10213 10230 10247 10285 10301 10324 10346 10361 10370 10383 10395 10410 10422 10428 10433 10443 10443 10451 10461 10474 10484 10489 10491 10496 10512 10528 10524 10526 10529 10531 10539 10537
10136 10130 10128 10127 10130 10134 10139 10146 10154 10164 10171 10184 10202 10215 10235 10267 10286 10309 10323 10336 10346 10360 10371 10388 10397 10406 10412 10422 10429 10434 10443 10450 10455 10461 10466 10473 10502 10500 10504 10505 10506 10508 10512 10511
10136 10129 10126 10126 10125 10129 10134 10139 10148 10156 10163 10175 10188 10202 10221 10238 10258 10272 10292 10305 10321 10334 10348 10361 10370 10381 10388 10397 10403 10408 10418 10426 10431 10434 10445 10458 10474 10482 10481 10480 10481 10483 10486 10485
10136 10128 10122 10122 10122 10123 10128 10134 10140 10148 10157 10166 10180 10192 10206 10219 10237 10256 10267 10280 10300 10316 10324 10333 10344 10360 10374 10378 10388 10396 10402 10407 10409 10415 10418 10437 10458 10456 10455 10451 10453 10464 10458 10459
10137 10128 10121 10118 10119 10120 10121 10125 10132 10139 10147 10157 10168 10180 10191 10205 10221 10242 10253 10267 10280 10297 10306 10316 10325 10337 10349 10354 10367 10376 10375 10378 10385 10395 10395 10413 10431 10426 10425 10420 10436 10430 10430 10431
10136 10129 10121 10116 10113 10115 10118 10121 10125 10130 10138 10147 10159 10172 10183 10195 10210 10225 10242 10250 10262 10277 10285 10294 10305 10317 10327 10338 10344 10349 10359 10361 10365 10368 10376 10387 10395 10394 10395 10397 10399 10400 10401 10400
10136 10128 10121 10115 10111 10108 10110 10114 10119 10122 10129 10137 10147 10159 10170 10184 10198 10209 10221 10234 10246 10255 10263 10276 10284 10296 10308 10317 10322 10329 10334 10336 10340 10344 10352 10356 10362 10363 10365 10366 10369 10369 10370 10370
10136 10127 10120 10115 10110 10106 10104 10105 10111 10115 10119 10125 10135 10146 10158 10169 10181 10194 10204 10214 10225 10234 10242 10249 10259 10270 10286 10291 10297 10304 10305 10309 10312 10317 10322 10325 10328 10332 10335 10337 10340 10342 10341 10342
10137 10127 10119 10113 10108 10104 10103 10101 10102 10106 10110 10116 10123 10132 10143 10153 10165 10178 10187 10195 10204 10215 10224 10232 10241 10248 10258 10267 10271 10275 10279 10283 10287 10291 10292 10294 10298 10303 10308 10311 10312 10313 10314 10314
10137 10125 10116 10110 10105 10101 10097 10096 10097 10099 10102 10107 10112 10119 10127 10136 10148 10160 10171 10182 10191 10198 10204 10210 10218 10223 10230 10235 10242 10246 10252 10257 10260 10263 10266 10273 10274 10277 10280 10281 10282 10282 10282 10282
10137 10124 10114 10105 10099 10096 10094 10091 10091 10091 10094 10097 10102 10106 10112 10121 10133 10142 10152 10163 10170 10176 10182 10186 10191 10195 10205 10211 10217 10220 10223 10228 10234 10237 10241 10245 10248 10248 10248 10249 10249 10249 10251 10249
10133 10121 10112 10103 10095 10090 10087 10085 10084 10084 10085 10088 10092 10096 10101 10106 10113 10124 10135 10142 10150 10156 10162 10168 10173 10178 10183 10190 10196 10200 10202 10204 10207 10209 10212 10215 10219 10220 10220 10219 10221 10222 10222 10221
10132 10117 10105 10098 10091 10085 10081 10079 10077 10077 10077 10078 10080 10084 10090 10095 10101 10107 10114 10121 10128 10134 10139 10145 10153 10159 10164 10170 10173 10174 10176 10179 10180 10182 10185 10188 10189 10189 10189 10191 10192 10192 10191 10190
10128 10116 10103 10091 10084 10078 10072 10069 10068 10066 10067 10069 10070 10072 10075 10079 10085 10090 10095 10101 10108 10113 10119 10125 10130 10136 10140 10143 10145 10148 10152 10154 10156 10157 10158 10159 10159 10158 10160 10163 10164 10163 10161 10159
10123 10110 10099 10088 10077 10071 10065 10060 10059 10057 10057 10056 10058 10060 10061 10063 10067 10073 10079 10085 10090 10095 10101 10105 10109 10111 10113 10116 10119 10123 10125 10127 10129 10132 10131 10130 10129 10130 10135 10137 10136 10134 10131 10128
10121 10107 10093 10084 10073 10064 10058 10053 10049 10046 10045 10045 10046 10047 10049 10050 10053 10056 10060 10063 10069 10073 10077 10081 10087 10088 10088 10090 10094 10096 10098 10099 10099 10100 10101 10101 10105 10108 10110 10107 10103 10100 10097 10093
10115 10104 10089 10078 10068 10058 10051 10044 10040 10038 10036 10033 10032 10033 10034 10035 10037 10038 10040 10043 10047 10053 10057 10058 10063 10063 10062 10065 10067 10070 10072 10073 10075 10075 10076 10080 10081 10079 10076 10072 10070 10066 10064 10062
10107 10093 10083 10071 10061 10052 10043 10036 10030 10026 10023 10022 10021 10019 10019 10020 10022 10023 10024 10027 10031 10034 10035 10038 10039 10035 10036 10040 10044 10048 10050 10052 10053 10054 10053 10052 10049 10047 10046 10046 10042 10040 10037 10037
10101 10086 10074 10063 10051 10042 10033 10027 10020 10016 10012 10009 10008 10007 10006 10006 10007 10009 10010 10012 10012 10015 10017 10016 10014 10015 10019 10022 10025 10028 10028 10028 10028 10028 10027 10025 10021 10023 10021 10021 10020 10018 10015 10011
10092 10077 10064 10052 10043 10033 10023 10015 10009 10003 9999 9996 9995 9993 9993 9992 9992 9993 9993 9994 9995 9995 9997 9998 10000 10000 10001 10003 10006 10008 10008 10008 10008 10006 10003 10000 9999 9998 10001 9999 9998 9995 9990 9985
10082 10065 10053 10042 10033 10023 10014 10005 9998 9992 9987 9983 9981 9979 9978 9978 9978 9977 9978 9978 9978 9981 9983 9982 9982 9982 9984 9985 9986 9987 9987 9986 9985 9984 9983 9981 9980 9979 9978 9977 9975 9971 9968 9964
10071 10054 10042 10030 10019 10009 10000 9993 9986 9979 9975 9971 9968 9966 9964 9963 9962 9960 9961 9961 9963 9964 9966 9967 9967 9968 9968 9968 9968 9968 9968 9966 9965 9964 9963 9962 9961 9959 9957 9954 9954 9951 9948 9945